WZZ405 EPKK-EPWA

Flight info

Callsign WZZ405
Flight time 0h 28m
Altitude 21000
Route POBOK M985 KOTEK M866 LOGDA
Aircraft A20N/M-SDE2E3FGHIRWXY/LB1

Departure

Time 2026-05-05 15:20
Airport Kraków John Paul II International Airport (EPKK)

Arrival

Time 2026-05-05 15:48
Airport Warsaw Chopin Airport (EPWA)
Time Latitude Longitude Altitude Speed Heading
2026-05-05 14:41 50.07340 19.80116 789 ft 0 kts 168°
2026-05-05 15:09 50.07345 19.80114 789 ft 2 kts 168°
2026-05-05 15:09 50.07364 19.80108 789 ft 3 kts 166°
2026-05-05 15:09 50.07383 19.80100 789 ft 3 kts 159°
2026-05-05 15:09 50.07400 19.80086 789 ft 3 kts 130°
2026-05-05 15:10 50.07407 19.80067 789 ft 1 kts 78°
2026-05-05 15:10 50.07404 19.80048 789 ft 1 kts 78°
2026-05-05 15:10 50.07404 19.80047 789 ft 0 kts 78°
2026-05-05 15:14 50.07406 19.80065 789 ft 4 kts 78°
2026-05-05 15:14 50.07414 19.80121 789 ft 7 kts 78°
2026-05-05 15:14 50.07416 19.80135 789 ft 3 kts 77°
2026-05-05 15:14 50.07423 19.80183 789 ft 6 kts 77°
2026-05-05 15:15 50.07435 19.80264 789 ft 9 kts 78°
2026-05-05 15:15 50.07457 19.80359 789 ft 10 kts 44°
2026-05-05 15:15 50.07529 19.80406 789 ft 13 kts 18°
2026-05-05 15:15 50.07623 19.80412 789 ft 11 kts 347°
2026-05-05 15:16 50.07688 19.80388 789 ft 1 kts 345°
2026-05-05 15:16 50.07705 19.80381 790 ft 4 kts 345°
2026-05-05 15:16 50.07745 19.80366 790 ft 7 kts 348°
2026-05-05 15:16 50.07804 19.80349 790 ft 9 kts 348°
2026-05-05 15:17 50.07836 19.80338 790 ft 2 kts 347°
2026-05-05 15:17 50.07844 19.80336 790 ft 0 kts 348°
2026-05-05 15:17 50.07845 19.80336 790 ft 1 kts 348°
2026-05-05 15:18 50.07861 19.80330 790 ft 4 kts 348°
2026-05-05 15:18 50.07902 19.80317 789 ft 8 kts 348°
2026-05-05 15:18 50.07970 19.80290 789 ft 12 kts 342°
2026-05-05 15:18 50.08014 19.80193 789 ft 12 kts 264°
2026-05-05 15:19 50.07996 19.80073 789 ft 14 kts 257°
2026-05-05 15:19 50.07939 19.79662 790 ft 72 kts 257°
2026-05-05 15:19 50.07790 19.78595 791 ft 127 kts 258°
2026-05-05 15:19 50.07574 19.77073 1010 ft 148 kts 255°
2026-05-05 15:20 50.07361 19.75517 1636 ft 144 kts 255°
2026-05-05 15:20 50.07149 19.74044 2316 ft 137 kts 253°
2026-05-05 15:20 50.06922 19.72524 2751 ft 153 kts 250°
2026-05-05 15:20 50.06635 19.70836 3176 ft 170 kts 252°
2026-05-05 15:21 50.06366 19.68954 3578 ft 188 kts 256°
2026-05-05 15:21 50.06270 19.66763 3867 ft 224 kts 275°
2026-05-05 15:21 50.06932 19.64452 4489 ft 252 kts 306°
2026-05-05 15:21 50.08374 19.62754 5325 ft 270 kts 335°
2026-05-05 15:22 50.10189 19.62000 6449 ft 271 kts 346°
2026-05-05 15:22 50.12066 19.61454 7320 ft 280 kts 349°
2026-05-05 15:22 50.14090 19.61484 7569 ft 300 kts 10°
2026-05-05 15:22 50.16064 19.62596 7901 ft 308 kts 28°
2026-05-05 15:23 50.17805 19.64584 8691 ft 312 kts 40°
2026-05-05 15:23 50.19424 19.66816 9799 ft 310 kts 43°
2026-05-05 15:23 50.21032 19.69139 10521 ft 322 kts 42°
2026-05-05 15:23 50.22751 19.71572 10872 ft 345 kts 41°
2026-05-05 15:24 50.24576 19.74112 11251 ft 364 kts 41°
2026-05-05 15:24 50.26489 19.76773 12020 ft 370 kts 41°
2026-05-05 15:24 50.28423 19.79470 12863 ft 375 kts 41°
2026-05-05 15:24 50.30470 19.82021 13639 ft 381 kts 32°
2026-05-05 15:25 50.32788 19.84082 14336 ft 385 kts 26°
2026-05-05 15:25 50.35187 19.86003 15118 ft 387 kts 26°
2026-05-05 15:25 50.37601 19.87956 15823 ft 392 kts 27°
2026-05-05 15:25 50.40019 19.89984 16558 ft 396 kts 28°
2026-05-05 15:26 50.42448 19.92078 17270 ft 400 kts 28°
2026-05-05 15:26 50.44861 19.94191 17947 ft 404 kts 28°
2026-05-05 15:26 50.47328 19.96365 18575 ft 407 kts 28°
2026-05-05 15:26 50.49801 19.98552 19260 ft 408 kts 28°
2026-05-05 15:27 50.52284 20.00750 19928 ft 410 kts 28°
2026-05-05 15:27 50.54785 20.02963 20492 ft 413 kts 28°
2026-05-05 15:27 50.57295 20.05186 20728 ft 414 kts 28°
2026-05-05 15:27 50.59805 20.07413 20812 ft 414 kts 28°
2026-05-05 15:28 50.62317 20.09643 20813 ft 414 kts 28°
2026-05-05 15:28 50.64823 20.11872 20811 ft 414 kts 28°
2026-05-05 15:28 50.67303 20.14081 20809 ft 414 kts 28°
2026-05-05 15:28 50.69809 20.16315 20811 ft 414 kts 28°
2026-05-05 15:29 50.72318 20.18553 20809 ft 414 kts 28°
2026-05-05 15:29 50.74828 20.20796 20811 ft 414 kts 28°
2026-05-05 15:29 50.77339 20.23044 20808 ft 414 kts 28°
2026-05-05 15:29 50.79846 20.25290 20810 ft 414 kts 28°
2026-05-05 15:30 50.82356 20.27541 20817 ft 414 kts 28°
2026-05-05 15:30 50.84868 20.29798 20814 ft 414 kts 28°
2026-05-05 15:30 50.87376 20.32053 20810 ft 415 kts 28°
2026-05-05 15:30 50.89887 20.34314 20811 ft 415 kts 28°
2026-05-05 15:31 50.92398 20.36576 20805 ft 415 kts 28°
2026-05-05 15:31 50.94880 20.38815 20803 ft 415 kts 28°
2026-05-05 15:31 50.97401 20.41091 20814 ft 415 kts 28°
2026-05-05 15:31 50.99905 20.43357 20809 ft 415 kts 28°
2026-05-05 15:32 51.02416 20.45633 20806 ft 415 kts 28°
2026-05-05 15:32 51.04930 20.47915 20809 ft 415 kts 28°
2026-05-05 15:32 51.07440 20.50194 20803 ft 415 kts 28°
2026-05-05 15:32 51.09943 20.52470 20808 ft 415 kts 28°
2026-05-05 15:33 51.12454 20.54755 20802 ft 416 kts 28°
2026-05-05 15:33 51.14961 20.57041 20807 ft 415 kts 28°
2026-05-05 15:33 51.17456 20.59318 20629 ft 416 kts 28°
2026-05-05 15:33 51.19981 20.61625 20284 ft 416 kts 28°
2026-05-05 15:34 51.22500 20.63930 19760 ft 417 kts 28°
2026-05-05 15:34 51.25008 20.66227 19215 ft 415 kts 28°
2026-05-05 15:34 51.27468 20.68471 18824 ft 404 kts 26°
2026-05-05 15:34 51.30005 20.70255 18257 ft 393 kts 16°
2026-05-05 15:35 51.32576 20.71590 17933 ft 387 kts 15°
2026-05-05 15:35 51.35141 20.72975 17753 ft 391 kts 19°
2026-05-05 15:35 51.37612 20.74810 17279 ft 392 kts 24°
2026-05-05 15:35 51.40085 20.76717 16413 ft 395 kts 24°
2026-05-05 15:36 51.42581 20.78673 15259 ft 405 kts 24°
2026-05-05 15:36 51.45127 20.80713 14471 ft 409 kts 25°
2026-05-05 15:36 51.47651 20.82768 13769 ft 403 kts 25°
2026-05-05 15:36 51.50101 20.84779 12871 ft 399 kts 25°
2026-05-05 15:37 51.52565 20.86809 11995 ft 394 kts 25°
2026-05-05 15:37 51.54997 20.88812 11167 ft 389 kts 25°
2026-05-05 15:37 51.57400 20.90795 10368 ft 384 kts 25°
2026-05-05 15:37 51.59699 20.92693 10068 ft 365 kts 25°
2026-05-05 15:38 51.61899 20.94510 9857 ft 345 kts 25°
2026-05-05 15:38 51.63983 20.96236 9682 ft 327 kts 25°
2026-05-05 15:38 51.65968 20.97881 9259 ft 317 kts 25°
2026-05-05 15:38 51.67924 20.99497 8661 ft 315 kts 25°
2026-05-05 15:39 51.69875 21.01109 8080 ft 313 kts 25°
2026-05-05 15:39 51.71778 21.02683 7565 ft 309 kts 26°
2026-05-05 15:39 51.73665 21.04247 7211 ft 299 kts 26°
2026-05-05 15:39 51.75506 21.05775 6951 ft 295 kts 26°
2026-05-05 15:40 51.77271 21.07244 6713 ft 308 kts 26°
2026-05-05 15:40 51.79126 21.08790 6597 ft 300 kts 27°
2026-05-05 15:40 51.80932 21.10296 6467 ft 284 kts 26°
2026-05-05 15:40 51.82641 21.11724 6307 ft 269 kts 26°
2026-05-05 15:41 51.84280 21.13092 5902 ft 263 kts 27°
2026-05-05 15:41 51.85904 21.14448 5406 ft 262 kts 27°
2026-05-05 15:41 51.87522 21.15801 4946 ft 260 kts 27°
2026-05-05 15:41 51.89112 21.17137 4535 ft 257 kts 27°
2026-05-05 15:42 51.90757 21.18206 4110 ft 253 kts
2026-05-05 15:42 51.92481 21.17977 3691 ft 250 kts 336°
2026-05-05 15:42 51.94051 21.16745 3305 ft 252 kts 326°
2026-05-05 15:42 51.95537 21.15297 3090 ft 246 kts 325°
2026-05-05 15:43 51.97000 21.13882 3004 ft 246 kts 326°
2026-05-05 15:43 51.97971 21.12970 2994 ft 238 kts 326°
2026-05-05 15:43 51.99382 21.11701 2995 ft 225 kts 328°
2026-05-05 15:43 52.01138 21.10192 2995 ft 205 kts 328°
2026-05-05 15:44 52.02347 21.09146 2999 ft 191 kts 328°
2026-05-05 15:44 52.03485 21.08155 2934 ft 183 kts 328°
2026-05-05 15:44 52.04227 21.07501 2812 ft 182 kts 328°
2026-05-05 15:44 52.05342 21.06529 2588 ft 182 kts 328°
2026-05-05 15:45 52.06459 21.05551 2365 ft 181 kts 328°
2026-05-05 15:45 52.07559 21.04601 2122 ft 177 kts 328°
2026-05-05 15:45 52.08608 21.03675 1890 ft 165 kts 327°
2026-05-05 15:45 52.09601 21.02815 1692 ft 161 kts 327°
2026-05-05 15:46 52.10598 21.01940 1477 ft 161 kts 327°
2026-05-05 15:46 52.11583 21.01082 1275 ft 160 kts 327°
2026-05-05 15:46 52.12564 21.00209 1069 ft 161 kts 328°
2026-05-05 15:46 52.13536 20.99369 814 ft 156 kts 329°
2026-05-05 15:47 52.14518 20.98529 601 ft 165 kts 328°
2026-05-05 15:47 52.15506 20.97659 382 ft 157 kts 327°
2026-05-05 15:47 52.16398 20.96867 334 ft 122 kts 332°
2026-05-05 15:47 52.16969 20.96360 332 ft 66 kts 331°
2026-05-05 15:48 52.17318 20.96251 335 ft 30 kts 356°
2026-05-05 15:48 52.17390 20.96285 335 ft 1 kts 54°
2026-05-05 15:48 52.17394 20.96293 336 ft 0 kts 54°
2026-05-05 15:50 52.17402 20.96313 333 ft 5 kts 56°
2026-05-05 15:50 52.17424 20.96376 336 ft 8 kts 62°
2026-05-05 15:50 52.17453 20.96466 333 ft 9 kts 63°
2026-05-05 15:50 52.17466 20.96511 335 ft 5 kts 70°
2026-05-05 15:51 52.17452 20.96580 331 ft 8 kts 138°
2026-05-05 15:51 52.17398 20.96631 333 ft 10 kts 150°
2026-05-05 15:51 52.17328 20.96692 335 ft 12 kts 152°
2026-05-05 15:51 52.17257 20.96755 333 ft 11 kts 151°
2026-05-05 15:52 52.17196 20.96809 336 ft 9 kts 150°
2026-05-05 15:52 52.17148 20.96851 332 ft 7 kts 152°
2026-05-05 15:52 52.17110 20.96884 336 ft 5 kts 154°
2026-05-05 15:52 52.17106 20.96887 331 ft 0 kts 159°
2026-05-05 15:53 52.17096 20.96888 333 ft 2 kts 178°
2026-05-05 15:53 52.17090 20.96884 334 ft 0 kts 200°
2026-05-05 15:53 52.17086 20.96876 334 ft 1 kts 230°
2026-05-05 15:53 52.17083 20.96853 333 ft 2 kts 258°
2026-05-05 15:54 52.17081 20.96835 333 ft 1 kts 263°
2026-05-05 15:54 52.17081 20.96817 334 ft 3 kts 268°
2026-05-05 15:54 52.17081 20.96800 332 ft 0 kts 271°
2026-05-05 15:54 52.17081 20.96797 333 ft 1 kts 272°
2026-05-05 15:55 52.17081 20.96794 333 ft 0 kts 273°